Regional Weather Roundup
Issued by NWS

Home | Current Version | Previous Version | Graphics & Text | Print | Product List | Glossary On
Versions: 1 2 3 4 5 6 7 8 9 10 11 12 13 14 15 16 17 18 19 20 21 22 23 24 25 26 27 28 29 30 31 32 33 34 35 36 37 38 39 40 41 42 43 44 45 46 47 48 49 50
000
ASUS45 KTFX 280004
RWRMT
MONTANA HOURLY WEATHER ROUNDUP
NATIONAL WEATHER SERVICE GREAT FALLS MT
604 PM MDT SUN JUL 27 2014

NOTE: "FAIR" INDICATES FEW OR NO CLOUDS BELOW 12000 FEET WITH NO
SIGNIFICANT WEATHER AND/OR OBSTRUCTIONS TO VISIBILITY.

* THESE STATIONS ARE NOT UNDER NWS QUALITY CONTROL. THEY DO NOT
   REPORT WEATHER SUCH AS PRECIPITATION OR FOG.

MTZ001>007-043-280100-
WEST OF THE DIVIDE
CITY           SKY/WX    TMP DP  RH WIND       PRES   REMARKS
KALISPELL      CLEAR     84  39  20 VRB5      30.17F
MISSOULA       CLEAR     93  39  15 N15       30.13F
BUTTE          CLEAR     84  25  11 S3        30.27F
MULLAN PASS    PTCLDY    75  34  22 CALM      30.36S
* ESSEX        N/A       84  26  12 S2G7       N/A
* LINCOLN      N/A       87  30  13 NW5G10     N/A
* LOOKOUT PASS N/A       81  29  15 N8         N/A
* POLSON       N/A       81  32  17 NE3G11     N/A
* RONAN APT    CLEAR     86  45  24 N6         N/A
* SEELEY LAKE  N/A       89  34  14 NW6G11     N/A
* THOMP F APT  PTCLDY    87  21   9 S5G14      N/A
* YAAK HILL    N/A       93  42  17 NW3        N/A
$$

MTZ008-052>055-280100-
SOUTHWEST MONTANA
CITY           SKY/WX    TMP DP  RH WIND       PRES   REMARKS
BOZEMAN        CLEAR     90  34  14 VRB3      30.22F
DILLON         CLEAR     90  30  12 NE9       30.23F
W YELLOWSTONE  LGT RAIN  82  25  12 NE5       30.34F
* THREE FORKS  CLEAR     90  39  17 N/A        N/A
* BOULDER HILL N/A       81  38  21 NE4G11     N/A
* MONIDA PASS  N/A       82  25  12 SW7        N/A
* RAYNOLDS PAS N/A       88  44  22 E1G12      N/A
* WHITEHALL    N/A       91  31  12 SE6        N/A
* WISE RIVER   N/A       88  16   7 NW7G14     N/A
$$

MTZ009>010-012-014-046-048-049-054-280100-
EAST SLOPES AND CENTRAL MONTANA
CITY           SKY/WX    TMP DP  RH WIND       PRES   REMARKS
CUT BANK       CLEAR     84  39  20 E7        30.23S
GREAT FALLS    CLEAR     90  34  14 NE10      30.20F
HELENA         CLEAR     91  34  13 E7        30.17F
* CONRAD       CLEAR     82  46  28 NE8        N/A
* DEARBORN     N/A       88  37  16 VRB11G21    N/A
* EAST GLACIER N/A       81  30  16 W11        N/A
* MONARCH      N/A       81  34  18 E7G13      N/A
* ROGERS PASS  N/A       82  22  11 SE8G13     N/A
* SAINT MARY   N/A       82  36  19 W5G11      N/A
* SWEET GRASS  N/A       82  37  20 W4G14      N/A
$$

MTZ011-013-016-021-035-040-045-047-050-051-280100-
NORTH CENTRAL MONTANA
CITY           SKY/WX    TMP DP  RH WIND       PRES   REMARKS
HAVRE          CLEAR     86  43  22 E8G20     30.20F
LEWISTOWN      CLEAR     84  37  19 VRB3      30.25F
* DENTON       N/A       88  39  18 N3G9       N/A
* JUDITH GAP   N/A       82  41  23 SE8G16     N/A
* LOMA         N/A       87  37  17 NE6G14     N/A
$$

MTZ017>020-022>027-061-062-280100-
NORTHEAST MONTANA
CITY           SKY/WX    TMP DP  RH WIND       PRES   REMARKS
GLASGOW        CLEAR     82  45  27 NW12      30.22F
GLENDIVE       CLEAR     77  50  39 E5        30.27S
JORDAN         CLEAR     84  39  20 N6G18     30.23F
SIDNEY         CLEAR     75  54  48 NE10      30.27F
WOLF POINT     FAIR      81  52  37 SE7       30.23S
* BEAVER HILL  N/A       73  52  48 E6G11      N/A
* CIRCLE       N/A       81  50  34 N4         N/A
* LINDSAY DVD  N/A       77  50  39 NE8        N/A
* NAVAJO       N/A       73  55  53 SW2        N/A
$$

MTZ028>042-056>058-280100-
SOUTHCENTRAL AND SOUTHEAST MONTANA
CITY           SKY/WX    TMP DP  RH WIND       PRES   REMARKS
BAKER          PTCLDY    77  48  36 N7        30.28F
BILLINGS       FAIR      86  41  20 NE16      30.23F
LIVINGSTON     CLEAR     90  32  13 E13       30.23F
MILES CITY     CLEAR     84  43  24 N15       30.23F
* LAUREL APT   CLEAR     88  43  21 NE8        N/A
* ROUNDUP APT  CLEAR     86  36  17 E7         N/A
* ALZADA       N/A       81  42  25 W5         N/A
* HYSHAM       N/A       84  42  23 SE6        N/A
* LAME DEER    N/A       79  41  26 NE2        N/A
* REED POINT   N/A       89  43  20 E9G15      N/A
* ROSCOE HILL  N/A       82  37  20 NE6G12     N/A
$$

REGIONAL REPORTS...DAKOTAS
CITY           SKY/WX    TMP DP  RH WIND       PRES   REMARKS
WILLISTON      CLEAR     73  52  48 E13       30.28F
DICKINSON      FAIR      72  52  49 NE9       30.28F
CROSBY         CLEAR     68  57  68 N3        30.29S
TIOGA          FAIR      66  55  68 N6        30.32F
WATFORD CITY   CLEAR     72  52  49 NE9       30.26F
BISMARCK       MOCLDY    68  52  57 N10       30.27S
GRAND FORKS    CLOUDY    68  57  68 N9        30.17S
FARGO          CLOUDY    66  55  68 N14       30.17R
BUFFALO SD     CLEAR     75  52  45 NE12      30.22S
RAPID CITY     CLEAR     81  46  29 NE9       30.26F
$$

REGIONAL REPORTS...WYOMING/IDAHO/WASHINGTON
CITY           SKY/WX    TMP DP  RH WIND       PRES   REMARKS
GILLETTE       CLEAR     84  39  20 NE10      30.28F
SHERIDAN       CLEAR     86  43  22 VRB6      30.25F
YELLOWSTONE LA CLEAR     73  34  24 E3        30.47F
SALMON         PTCLDY    91  30  11 N5        30.08F
MULLAN PASS    PTCLDY    75  34  22 CALM      30.36S
SAND POINT     PTCLDY    86  32  14 E3        30.11F
SPOKANE        MOCLDY    91  30  11 NE7       30.11S

$$




USA.gov is the U.S. government's official web portal to all federal, state and local government web resources and services.